FW0822 Weather Reports


time (UTC)temp
C
wind
direction
speed
KPH
gust
KPH
rain 1hr
cm
rain 24hr
cm
rain mn
cm
humidity
%
barometer
mb
20260906111522 22 217 0.0 0.0 0.00 0.48 0.00 93 1013.3
20260906110019 22 217 0.0 0.0 0.00 0.48 0.00 93 1013.2
20260906103012 22 217 0.0 0.0 0.00 0.48 0.00 93 1012.9
20260906101508 22 217 0.0 0.0 0.00 0.48 0.00 93 1012.7
20260906100004 22 217 0.0 0.0 0.00 0.48 0.00 93 1012.5
20260906093113 22 217 0.0 0.0 0.00 0.48 0.00 93 1012.2
20260906091556 22 217 0.0 0.0 0.00 0.48 0.00 93 1012.2
20260906090050 22 217 0.0 0.0 0.00 0.48 0.00 93 1012.1
20260906083049 22 217 0.0 0.0 0.00 0.48 0.00 92 1011.7
20260906081548 21 217 0.0 0.0 0.00 0.48 0.00 92 1011.4
20260906080038 21 217 0.0 0.0 0.00 0.48 0.00 91 1011.4
20260906073033 22 217 0.0 0.0 0.00 0.48 0.00 91 1011.3
20260906071526 22 217 0.0 0.0 0.00 0.48 0.00 91 1011.4
20260906070025 22 217 0.0 0.0 0.00 0.48 0.48 91 1011.5
20260906063024 22 217 0.0 0.0 0.00 0.48 0.48 91 1011.9
20260906061523 22 217 0.0 0.0 0.00 0.48 0.48 91 1011.7
20260906060027 22 217 0.0 0.0 0.00 0.48 0.48 90 1011.8
20260906053028 22 217 0.0 0.0 0.00 0.48 0.48 90 1012.0
20260906051531 22 217 0.0 0.0 0.00 0.48 0.48 90 1012.0
20260906050047 22 217 0.0 0.0 0.00 0.48 0.48 89 1012.3
20260906043023 22 217 0.0 0.0 0.00 0.48 0.48 89 1012.5
20260906041523 22 217 0.0 0.0 0.00 0.48 0.48 89 1012.5
20260906040022 22 217 0.0 0.0 0.00 0.48 0.48 89 1012.6
20260906033026 22 217 0.0 0.0 0.00 0.48 0.48 88 1012.6
20260906031526 23 217 0.0 0.0 0.00 0.48 0.48 88 1012.6
20260906030021 23 217 0.0 0.0 0.00 0.48 0.48 88 1012.4
20260906023024 23 217 0.0 0.0 0.00 0.48 0.48 88 1012.1
20260906021520 23 217 0.0 0.0 0.00 0.48 0.48 87 1012.0
20260906020020 23 217 0.0 0.0 0.00 0.48 0.48 87 1011.7
20260906013020 23 217 0.0 0.0 0.00 0.48 0.48 87 1011.5
20260906011520 23 217 0.0 0.0 0.00 0.48 0.48 86 1011.5
20260906010020 23 217 0.0 0.0 0.00 0.48 0.48 85 1011.4
20260906003019 23 217 0.0 0.0 0.00 0.48 0.48 85 1011.3
20260906001518 24 217 0.0 0.0 0.00 0.48 0.48 84 1010.9
20260906000018 24 217 0.0 0.0 0.00 0.69 0.48 84 1010.9
20260905233025 25 217 0.0 0.0 0.00 0.69 0.48 83 1010.5
20260905231518 25 217 0.0 0.0 0.00 0.69 0.48 84 1010.4
20260905230017 26 217 0.0 0.0 0.00 0.97 0.48 84 1010.3
20260905223016 25 217 0.0 0.0 0.00 0.97 0.48 84 1010.3
20260905221515 25 213 0.0 0.0 0.00 0.97 0.48 87 1010.4
20260905220016 25 213 0.0 0.0 0.00 0.97 0.48 87 1010.7
20260905213014 24 213 0.0 0.0 0.00 0.97 0.48 91 1010.8
20260905211513 24 215 0.0 0.0 0.00 0.97 0.48 91 1010.9
20260905210014 23 202 0.0 0.0 0.00 0.97 0.48 91 1011.2
20260905203015 23 209 0.0 0.0 0.00 0.97 0.48 89 1010.6
20260905201513 24 209 0.0 0.0 0.00 0.97 0.48 87 1011.0
20260905200019 25 209 0.0 0.0 0.05 1.04 0.48 86 1011.4
20260905193024 26 128 0.0 0.0 0.48 1.04 0.48 79 1010.5
20260905191511 27 128 0.0 0.0 0.48 1.04 0.48 77 1010.6
20260905190014 29 128 0.0 0.0 0.46 1.02 0.46 70 1010.9
20260905183014 32 223 0.0 0.0 0.00 0.56 0.00 57 1011.5
20260905181512 32 202 0.0 0.0 0.00 0.56 0.00 63 1010.3
20260905180007 32 202 0.0 0.0 0.00 0.56 0.00 65 1010.7
20260905173110 32 202 0.0 0.0 0.00 0.56 0.00 67 1011.1
20260905171558 31 202 0.0 0.0 0.00 0.56 0.00 67 1011.8
20260905170056 31 202 0.0 0.0 0.00 0.56 0.00 67 1012.2
20260905163056 31 204 0.0 1.6 0.00 0.56 0.00 69 1012.4
20260905161548 30 202 0.0 6.4 0.00 0.56 0.00 68 1012.6
20260905160052 30 208 0.0 0.0 0.00 0.56 0.00 71 1012.7
20260905153041 28 232 0.0 0.0 0.00 0.56 0.00 76 1012.9
20260905151537 28 225 0.0 0.0 0.00 0.56 0.00 76 1013.1
20260905150034 27 226 0.0 1.6 0.00 0.56 0.00 80 1013.3
20260905143027 25 227 0.0 0.0 0.00 0.56 0.00 93 1013.2
20260905141541 24 210 0.0 0.0 0.00 0.56 0.00 95 1013.2
20260905140020 23 207 0.0 0.0 0.00 0.56 0.00 96 1013.2
20260905133021 23 207 0.0 0.0 0.00 0.56 0.00 96 1013.2
20260905131515 22 207 0.0 0.0 0.00 0.56 0.00 95 1013.2
20260905130013 22 207 0.0 0.0 0.00 0.56 0.00 95 1013.4
20260905123013 22 226 0.0 0.0 0.00 0.56 0.00 95 1013.6
20260905121512 21 226 0.0 0.0 0.00 0.56 0.00 95 1013.5
20260905120009 21 226 0.0 0.0 0.00 0.56 0.00 94 1013.4
20260905113007 21 226 0.0 0.0 0.00 0.56 0.00 94 1012.9